Flag for China Weather past 2 weeks in Shanghai, Shanghai Municipality, China

Now
86 °F

Clear.


Feels Like: 97 °F
Forecast: 83 / 98 °F
Wind: 8 mph from Southeast

Location: Shanghai Hongqiao Airport

Current Time: Aug 2, 2015 at 12:56:33 AM

Latest Report: Aug 2, 2015 at 12:30 AM


Visibility: 10 mi

Pressure: 29.77 "Hg

Humidity: 75%

Dew point: 77 °F

Location of ShanghaiLocation

Historic Weather in Shanghai — Graph

°F

Shanghai temperature yesterday

Maximum temperature yesterday: 100 °F (at 1:00 PM)
Minimum temperature yesterday: 84 °F (at 2:30 AM)
Average temperature yesterday: 90 °F

Past Weeks' High & Low Weather Summary

 TemperatureHumidityPressure
High100 °F (Jul 27, 2:30 PM)94% (Jul 18, 3:00 AM)29.80 "Hg (Jul 18, 3:00 AM)
Low75 °F (Jul 18, 3:00 AM)37% (Jul 29, 5:00 PM)29.59 "Hg (Jul 22, 3:30 PM)
Average87 °F73%29.70 "Hg
* Reported Midnight between Jul 17 and Jul 18 — Midnight between Aug 1 and Aug 2, Shanghai, Weather by CustomWeather, © 2015

Note: Actual official high and low records may vary slightly from our data, if they occured in-between our weather recording intervals... More about our weather records

Advertising

Shanghai weather history for previous 24 hours

 ConditionsComfort  
Time TempWeatherWind HumidityBarometerVisibility
12:00 AM
Sun, Aug 2
86 °FClear.8 mph75%29.77 "Hg10 mi
11:30 PM
Sat, Aug 1
86 °FClear.8 mph75%29.80 "Hg10 mi
11:00 PM86 °FClear.6 mph79%29.80 "Hg10 mi
10:30 PM86 °FClear.6 mph75%29.80 "Hg10 mi
10:00 PM86 °FClear.8 mph75%29.80 "Hg10 mi
9:30 PM86 °FClear.8 mph75%29.80 "Hg10 mi
9:00 PM86 °FClear.8 mph79%29.80 "Hg4 mi
8:30 PM86 °FClear.10 mph79%29.77 "Hg4 mi
8:00 PM86 °FClear.8 mph84%29.77 "Hg4 mi
7:30 PM86 °FClear.10 mph84%29.77 "Hg4 mi
7:00 PM86 °FClear.8 mph84%29.77 "Hg4 mi
6:30 PM86 °FClear.13 mph84%29.77 "Hg4 mi
6:00 PM88 °FPassing clouds.10 mph84%29.77 "Hg4 mi
5:30 PM88 °FThunderstorms. Passing clouds.10 mph84%29.77 "Hg4 mi
5:00 PM90 °FThunderstorms. Passing clouds.10 mph79%29.74 "Hg4 mi
4:30 PM86 °FThunderstorms. Scattered clouds.15 mph89%29.74 "Hg4 mi
4:00 PM95 °FPassing clouds.15 mph60%29.74 "HgN/A
3:30 PM95 °FPassing clouds.10 mph60%29.74 "HgN/A
3:00 PM97 °FPassing clouds.10 mph56%29.74 "HgN/A
2:30 PM99 °FSunny.10 mph53%29.77 "Hg10 mi
2:00 PM99 °FSunny.3 mph42%29.77 "Hg10 mi
1:30 PM100 °FSunny.6 mph42%29.77 "Hg10 mi
1:00 PM100 °FSunny.3 mph40%29.80 "Hg10 mi
12:30 PM99 °FSunny.3 mph47%29.80 "Hg10 mi
12:00 PM99 °FSunny.3 mph44%29.80 "Hg10 mi
11:30 AM99 °FSunny.3 mph47%29.80 "Hg10 mi
11:00 AM97 °FPassing clouds.6 mph50%29.80 "HgN/A
10:30 AM97 °FPassing clouds.6 mph50%29.80 "HgN/A
10:00 AM95 °FPassing clouds.6 mph60%29.80 "HgN/A
9:30 AM95 °FPassing clouds.6 mph56%29.80 "HgN/A
9:00 AM93 °FPassing clouds.6 mph63%29.80 "HgN/A
8:30 AM91 °FPassing clouds.6 mph67%29.80 "HgN/A
8:00 AM90 °FSunny.8 mph71%29.80 "Hg10 mi
7:30 AM90 °FPassing clouds.3 mph71%29.80 "HgN/A
7:00 AM88 °FSunny.3 mph75%29.80 "Hg10 mi
6:30 AM86 °FSunny.6 mph79%29.77 "Hg10 mi
5:30 AM84 °FSunny.6 mph84%29.77 "Hg10 mi
5:00 AM84 °FClear.3 mph79%29.77 "Hg10 mi
4:30 AM84 °FClear.3 mph79%29.77 "Hg10 mi
4:00 AM84 °FClear.6 mph79%29.74 "Hg10 mi
3:30 AM84 °FClear.6 mph79%29.74 "Hg10 mi
3:00 AM84 °FClear.6 mph79%29.74 "Hg10 mi
2:30 AM84 °FClear.6 mph79%29.77 "Hg10 mi
2:00 AM86 °FClear.8 mph75%29.74 "Hg10 mi
1:30 AM86 °FClear.8 mph70%29.74 "Hg10 mi
1:00 AM86 °FClear.6 mph70%29.74 "Hg10 mi
12:30 AM88 °FClear.6 mph66%29.77 "Hg10 mi
12:00 AM88 °FClear.6 mph66%29.77 "Hg10 mi
Weather by CustomWeather, © 2015

See weather overviewHow to use our weather pages